Overview Statistics Trail Chart Weather Telemetry Raw packets
 

This is the latest recevied weather packets stored in our database for station/object IZ7EXI-13. If no packets are shown the sender has not sent any weather packets the latest 10 day(s).

<< 7 8 9 10 11 12 13 >>
Time Temp. Humidity Pressure Rain* Wind** Luminosity Snow
1788507511 28.89° C 50% 1020.9 hPa - - - -
1788506635 28.33° C 51% 1020.7 hPa - - - -
1788506611 28.33° C 51% 1020.7 hPa - - - -
1788505711 27.78° C 52% 1020.6 hPa - - - -
1788504844 27.22° C 53% 1020.4 hPa - - - -
1788504811 27.22° C 53% 1020.4 hPa - - - -
1788503942 26.67° C 54% 1020.3 hPa - - - -
1788503910 26.67° C 54% 1020.3 hPa - - - -
1788503010 26.67° C 56% 1020.3 hPa - - - -
1788502110 26.11° C 58% 1020.1 hPa - - - -
1788501210 25.56° C 60% 1020.1 hPa - - - -
1788500309 25° C 63% 1020.1 hPa - - - -
1788499409 25° C 64% 1020 hPa - - - -
1788498509 24.44° C 66% 1020 hPa - - - -
1788497609 24.44° C 67% 1019.9 hPa - - - -
1788496709 24.44° C 67% 1019.8 hPa - - - -
1788495808 24.44° C 66% 1019.7 hPa - - - -
1788494908 24.44° C 65% 1019.6 hPa - - - -
1788494008 24.44° C 64% 1019.4 hPa - - - -
1788493108 25° C 63% 1019.5 hPa - - - -
1788492208 25° C 63% 1019.5 hPa - - - -
1788491316 25° C 62% 1019.4 hPa - - - -
1788490407 25° C 63% 1019.3 hPa - - - -
1788489507 25° C 63% 1019.2 hPa - - - -
1788488607 25° C 64% 1019.2 hPa - - - -

* Rain since midnight (hover to see other rain measurements)
** Current wind speed in m/s (hover to see current wind gust speed)